Location: Newark
(39.6172°N, 96.8533°W)
Time: 06:51:07
(UTC+00:00)

Envisat - Pass Details

Date: 02 February 2020
Orbit: 764 x 766 km, 98.1° (Epoch: 20 February)

Event Time Altitude Azimuth Distance (km) Brightness Sun altitude
Rises 00:46:40 0° 182° (S) 3,217 6.4 -11.8°
Reaches altitude 10° 00:49:03 10° 189° (S) 2,295 5.7 -12.3°
Maximum altitude 00:53:52 44° 261° (W) 1,045 4.3 -13.2°
Drops below altitude 10° 00:58:44 10° 334° (NNW) 2,309 5.7 -14.1°
Sets 01:01:10 0° 341° (NNW) 3,240 6.4 -14.6°
